28. September 2022

Uhrzeit Code Wetter Temp. Sichtweite Wolkendecke Wind METAR/SPECI
04:55
M
10 °C 10 km+ 2.700 ft 210° 210° 5 kt METAR EHMA 280255Z AUTO 21005KT 9999 -RA FEW000 SCT006 FEW015CB BKN027 10/07 Q0994 RERA REDZ
04:25
I
10 °C 3,9 km 600 ft Var Var 4 kt METAR EHMA 280225Z AUTO VRB04KT 3900 -SHRA SCT000 SCT001 BKN006 FEW015CB 10/08 Q0994 RERA
03:55
I
10 °C 2,3 km 3.600 ft 230° 230° 5 kt METAR EHMA 280155Z AUTO 23005KT 180V280 2300 +SHRA FEW000 FEW015CB BKN036 BKN042 10/08 Q0994 REDZ
03:25
M
10 °C 6 km 4.900 ft 200° 200° 9 kt METAR EHMA 280125Z AUTO 20009KT 6000 -RA FEW015CB SCT038 BKN049 10/08 Q0994
02:55
V
10 °C 10 km+ - 210° 210° 10 kt METAR EHMA 280055Z AUTO 21010KT 9999 FEW015CB 10/08 Q0994
02:25
V
10 °C 10 km+ - 210° 210° 9 kt METAR EHMA 280025Z AUTO 21009KT 9999 NSC 10/08 Q0994
01:55
V
10 °C 10 km+ - 210° 210° 10 kt METAR EHMA 272355Z AUTO 21010KT 9999 NSC 10/07 Q0994
01:25
V
10 °C 10 km+ - Var Var 8 kt METAR EHMA 272325Z AUTO VRB08KT 9999 NSC 10/08 Q0994
00:55
V
10 °C 10 km+ - 220° 220° 10 kt METAR EHMA 272255Z AUTO 22010KT 9999 NSC 10/08 Q0995
00:25
V
10 °C 10 km+ - 220° 220° 10 kt METAR EHMA 272225Z AUTO 22010KT 9999 NSC 10/08 Q0995

27. September 2022

Uhrzeit Code Wetter Temp. Sichtweite Wolkendecke Wind METAR/SPECI
23:55
V
10 °C 10 km+ - 240° 240° 10 kt METAR EHMA 272155Z AUTO 24010KT 9999 SCT039 10/08 Q0995
23:25
V
10 °C 10 km+ - 230° 230° 11 kt METAR EHMA 272125Z AUTO 23011KT 9999 FEW009 SCT040 10/08 Q0995
22:55
V
10 °C 10 km+ 4.000 ft 240° 240° 13 kt METAR EHMA 272055Z AUTO 24013KT 9999 FEW009 FEW015CB BKN040 BKN047 10/08 Q0995
22:25
V
11 °C 10 km+ - 260° 260° 11 kt METAR EHMA 272025Z AUTO 26011KT 9999 FEW032 SCT040 11/07 Q0995 REDZ
21:55
V
11 °C 10 km+ 3.600 ft 250° 250° 11 kt METAR EHMA 271955Z AUTO 25011KT 9999 -RA FEW016 BKN036 BKN041 11/07 Q0995
21:25
V
10 °C 10 km+ - 240° 240° 11 kt METAR EHMA 271925Z AUTO 24011KT 9999 -DZRA FEW015CB SCT036 10/08 Q0995
20:55
V
10 °C 10 km+ - 240° 240° 13 kt METAR EHMA 271855Z AUTO 24013KT 9999 FEW015CB 10/07 Q0995
20:25
V
10 °C 10 km+ - 240° 240° 13 kt METAR EHMA 271825Z AUTO 24013KT 9999 FEW015CB SCT040 10/07 Q0995
19:55
V
10 °C 10 km+ 3.800 ft 230° 230° 14 kt METAR EHMA 271755Z AUTO 23014KT 9999 FEW006 FEW015CB SCT026 BKN038 10/07 Q0995
19:25
V
9 °C 10 km+ 3.800 ft 220° 220° 16 kt METAR EHMA 271725Z AUTO 22016KT 9999 DZ FEW006 BKN038 BKN043 09/07 Q0995
18:55
V
10 °C 10 km+ 3.800 ft 220° 220° 12 kt METAR EHMA 271655Z AUTO 22012KT 9999 DZ FEW001 FEW015CB BKN038 10/07 Q0995
18:25
V
10 °C 9 km 3.800 ft 220° 220° 8 kt METAR EHMA 271625Z AUTO 22008KT 9000 -RA FEW001 FEW015CB BKN038 OVC042 10/07 Q0995 RERA REDZ
17:55
V
10 °C 10 km+ 4.000 ft 260° 260° 10 kt METAR EHMA 271555Z AUTO 26010KT 230V290 9999 DZ FEW015CB SCT024 BKN040 10/07 Q0995
17:25
V
11 °C 10 km+ - 300° 300° 10 kt METAR EHMA 271525Z AUTO 30010KT 9999 FEW016 11/07 Q0995
16:55
V
11 °C 10 km+ - 290° 290° 9 kt METAR EHMA 271455Z AUTO 29009KT 9999 FEW018 SCT040 11/07 Q0995
16:25
V
11 °C 10 km+ 4.400 ft 290° 290° 16 kt METAR EHMA 271425Z AUTO 29016KT 9999 -RA FEW018 BKN044 11/07 Q0995
15:55
V
11 °C 10 km+ - 290° 290° 13 kt METAR EHMA 271355Z AUTO 29013KT 9999 -RA FEW001 SCT038 11/06 Q0995
15:25
V
11 °C 10 km+ 3.700 ft 290° 290° 14 kt METAR EHMA 271325Z AUTO 29014KT 9999 FEW001 BKN037 BKN042 11/05 Q0995 RERA
14:55
V
11 °C 10 km+ 4.100 ft 290° 290° 19 kt METAR EHMA 271255Z AUTO 29019KT 9999 -RA FEW017CB SCT037 BKN041 11/06 Q0995
14:25
V
12 °C 10 km+ - 300° 300° 12 kt METAR EHMA 271225Z AUTO 30012KT 9999 FEW023CB SCT041 12/06 Q0995
13:55
V
12 °C 10 km+ 4.500 ft 290° 290° 12 kt METAR EHMA 271155Z AUTO 29012KT 9999 FEW019 SCT041 BKN045 12/05 Q0995
13:25
V
11 °C 10 km+ 3.900 ft 290° 290° 13 kt METAR EHMA 271125Z AUTO 29013KT 9999 FEW019 SCT034 BKN039 11/07 Q0995
12:55
V
11 °C 10 km+ 3.500 ft 310° 310° 15 kt METAR EHMA 271055Z AUTO 31015KT 9999 -RA FEW012 FEW018CB SCT027 BKN035 11/06 Q0995 RERA
12:25
V
12 °C 10 km+ - 310° 310° 15 kt METAR EHMA 271025Z AUTO 31015KT 9999 FEW019 SCT032 12/07 Q0995
11:55
V
12 °C 10 km+ 3.800 ft 300° 300° 15 kt METAR EHMA 270955Z AUTO 30015KT 9999 FEW020 SCT026 BKN038 12/06 Q0995 REDZ
11:25
V
12 °C 10 km+ 3.100 ft 340° 340° 17 kt METAR EHMA 270925Z AUTO 34017KT 300V360 9999 DZ FEW017 SCT022 BKN031 12/07 Q0995
10:55
V
11 °C 10 km+ 3.800 ft 340° 340° 20 kt METAR EHMA 270855Z AUTO 34020KT 9999 -RA FEW017 SCT026 BKN038 11/07 Q0994 RERA REDZ
10:25
V
12 °C 10 km+ 3.800 ft 320° 320° 19 kt METAR EHMA 270825Z AUTO 32019KT 9999 DZ FEW017 SCT022 BKN038 12/08 Q0994
09:55
V
12 °C 10 km+ - 310° 310° 19 kt METAR EHMA 270755Z AUTO 31019KT 9999 FEW021 SCT025 12/06 Q0994
09:25
V
12 °C 10 km+ 3.900 ft 320° 320° 21 kt METAR EHMA 270725Z AUTO 32021KT 9999 FEW021 SCT024 BKN039 12/07 Q0994
08:55
M
12 °C 10 km+ 2.800 ft 320° 320° 22 kt METAR EHMA 270655Z AUTO 32022KT 9999 FEW021 SCT024 BKN028 12/07 Q0993 REDZ
08:25
V
12 °C 10 km+ 4.600 ft 330° 330° 18 kt METAR EHMA 270625Z AUTO 33018KT 9999 FEW025 SCT029 BKN046 12/07 Q0994
07:55
V
12 °C 10 km+ 4.500 ft 310° 310° 17 kt METAR EHMA 270555Z AUTO 31017KT 9999 -DZ FEW017 FEW020CB SCT036 BKN045 12/07 Q0993
07:25
V
12 °C 10 km+ - 300° 300° 20 kt METAR EHMA 270525Z AUTO 30020KT 9999 FEW018CB SCT038 12/07 Q0993
06:55
V
12 °C 10 km+ 3.700 ft 310° 310° 23 kt METAR EHMA 270455Z AUTO 31023KT 9999 FEW020CB SCT025 BKN037 12/07 Q0993
06:25
M
12 °C 10 km+ 2.600 ft 330° 330° 25 kt METAR EHMA 270425Z AUTO 33025KT 9999 FEW001 FEW021CB BKN026 BKN033 12/07 Q0993
05:55
V
13 °C 10 km+ 4.100 ft 320° 320° 20 kt METAR EHMA 270355Z AUTO 32020KT 9999 FEW001 FEW023CB SCT027 BKN041 13/07 Q0993 REDZ
05:25
V
12 °C 10 km+ 4.600 ft 320° 320° 22 kt METAR EHMA 270325Z AUTO 32022KT 9999 -RA FEW001 FEW015CB SCT040 BKN046 12/08 Q0993
04:55
V
12 °C 10 km+ 4.100 ft 320° 320° 21 kt METAR EHMA 270255Z AUTO 32021KT 9999 -RA FEW013 FEW018CB SCT025 BKN041 12/08 Q0993
04:25
V
13 °C 10 km+ 3.800 ft 320° 320° 25 kt METAR EHMA 270225Z AUTO 32025KT 9999 FEW001 FEW022CB SCT025 BKN038 13/07 Q0993 RERA
03:55
V
13 °C 10 km+ 4.400 ft 330° 330° 21 kt METAR EHMA 270155Z AUTO 33021KT 9999 FEW001 FEW020CB SCT035 BKN044 13/07 Q0993
03:25
M
12 °C 7 km 4.300 ft 320° 320° 23 kt METAR EHMA 270125Z AUTO 32023KT 7000 -RA FEW001 FEW015CB SCT038 BKN043 12/08 Q0993 RERA REDZ
02:55
I
11 °C 4,1 km 3.100 ft 310° 310° 28 kt METAR EHMA 270055Z AUTO 31028KT 290V350 4100 SHRA FEW001 FEW015CB SCT023 BKN031 11/07 Q0993
02:25
V
13 °C 10 km+ 3.900 ft 330° 330° 23 kt METAR EHMA 270025Z AUTO 33023KT 9999 FEW022/// SCT025/// BKN039/// 13/08 Q0993
01:55
V
12 °C 10 km+ 3.600 ft 330° 330° 22 kt METAR EHMA 262355Z AUTO 33022KT 9999 FEW018 FEW019CB SCT027 BKN036 12/08 Q0993
01:25
V
12 °C 10 km+ 4.300 ft 340° 340° 22 kt METAR EHMA 262325Z AUTO 34022KT 9999 FEW018CB SCT031 BKN043 12/08 Q0993 REDZ
00:55
V
13 °C 10 km+ - 340° 340° 23 kt METAR EHMA 262255Z AUTO 34023KT 9999 FEW018 FEW019CB SCT029 13/08 Q0993
00:25
V
12 °C 10 km+ 4.200 ft 340° 340° 21 kt METAR EHMA 262225Z AUTO 34021KT 9999 FEW016CB SCT028 BKN042 12/08 Q0993

26. September 2022

Uhrzeit Code Wetter Temp. Sichtweite Wolkendecke Wind METAR/SPECI
23:55
V
12 °C 10 km+ 3.000 ft 310° 310° 26 kt METAR EHMA 262155Z AUTO 31026KT 9999 FEW016 FEW017CB SCT021 BKN030 12/08 Q0993
23:25
V
13 °C 10 km+ 3.400 ft 330° 330° 23 kt METAR EHMA 262125Z AUTO 33023KT 9999 -RA FEW017 SCT022 BKN034 13/08 Q0993 RERA REDZ
22:55
V
13 °C 10 km+ - 310° 310° 22 kt METAR EHMA 262055Z AUTO 31022KT 9999 FEW020 SCT045 13/08 Q0993
22:25
V
13 °C 10 km+ - 310° 310° 26 kt METAR EHMA 262025Z AUTO 31026KT 9999 FEW020 13/08 Q0993
21:55
V
14 °C 10 km+ - 310° 310° 22 kt METAR EHMA 261955Z AUTO 31022KT 9999 FEW025 SCT038 14/08 Q0993
21:25
V
14 °C 10 km+ - 310° 310° 22 kt METAR EHMA 261925Z AUTO 31022KT 9999 FEW021 FEW023CB SCT031 14/08 Q0993
20:55
V
13 °C 10 km+ 3.500 ft 350° 350° 18 kt METAR EHMA 261855Z AUTO 35018KT 9999 FEW015CB SCT025 BKN035 13/09 Q0993 REDZ
20:25
V
13 °C 10 km+ 4.000 ft 340° 340° 10 kt METAR EHMA 261825Z AUTO 34010KT 9999 FEW015CB SCT028 BKN040 13/10 Q0993
19:55
V
14 °C 10 km+ - 320° 320° 17 kt METAR EHMA 261755Z AUTO 32017KT 9999 FEW018CB SCT033 14/09 Q0993
19:25
V
13 °C 10 km+ 3.000 ft 320° 320° 19 kt METAR EHMA 261725Z AUTO 32019KT 9999 FEW015CB SCT025 BKN030 13/10 Q0993 RERA
18:55
M
12 °C 7 km - 320° 320° 15 kt METAR EHMA 261655Z AUTO 32015KT 7000 RADZ FEW015 SCT028 12/10 Q0993
18:25
V
13 °C 10 km+ 3.900 ft 300° 300° 19 kt METAR EHMA 261625Z AUTO 30019KT 9999 FEW015 SCT020 BKN039 13/10 Q0993
17:55
L
14 °C 0 m - 300° 300° 17 kt METAR EHMA 261555Z AUTO 30017KT //// // FEW019 SCT022 14/08 Q0993 RE//
17:25
V
14 °C 10 km+ - 290° 290° 18 kt METAR EHMA 261525Z AUTO 29018KT 9999 FEW016/// SCT045/// 14/09 Q0993
16:55
L
13 °C 0 m - 290° 290° 23 kt METAR EHMA 261455Z AUTO 29023KT //// // FEW000 SCT019 13/10 Q0993 RE//
16:25
M
13 °C 5 km - 240° 240° 14 kt METAR EHMA 261425Z AUTO 24014KT 210V280 5000 SHRA FEW010 13/11 Q0994 RE//
15:55
L
14 °C 0 m - 220° 220° 16 kt METAR EHMA 261355Z AUTO 22016KT //// // FEW046 14/12 Q0994 RE//
15:25
L
14 °C 0 m - 230° 230° 15 kt METAR EHMA 261325Z AUTO 23015KT //// // FEW001 SCT041 14/11 Q0994 RE//
14:55
L
13 °C 0 m 3.900 ft 200° 200° 14 kt METAR EHMA 261255Z AUTO 20014KT //// // FEW001 SCT010 BKN039 13/12 Q0994 RE//
14:25
L
13 °C 0 m 2.300 ft Var Var 17 kt METAR EHMA 261225Z AUTO VRB17KT //// // FEW000 SCT009 BKN023 13/12 Q0994 RE//
13:55
L
12 °C 0 m 1.800 ft Var Var 19 kt METAR EHMA 261155Z AUTO VRB19KT //// // FEW000 SCT004 BKN018 12/11 Q0994 RE//
13:25
L
12 °C 0 m 600 ft Var Var 26 kt METAR EHMA 261125Z AUTO VRB26KT //// // FEW003 SCT005 BKN006 12/11 Q0994 RE//
12:55
L
12 °C 0 m 600 ft 200° 200° 31 kt METAR EHMA 261055Z AUTO 20031KT 160V260 //// // FEW005 BKN006 BKN007 12/11 Q0994 RE//
12:25
L
12 °C 0 m 600 ft Var Var 30 kt METAR EHMA 261025Z AUTO VRB30KT //// // FEW005 BKN006 BKN007 12/11 Q0994 RE//
11:55
L
12 °C 0 m 700 ft 210° 210° 31 kt METAR EHMA 260955Z AUTO 21031KT 160V290 //// // FEW002 SCT006 BKN007 12/11 Q0994 RE//
11:25
L
12 °C 0 m 1.700 ft Var Var 29 kt METAR EHMA 260925Z AUTO VRB29KT //// // FEW007 SCT011 BKN017 12/10 Q0995 RE//
10:55
L
12 °C 0 m 2.800 ft Var Var 31 kt METAR EHMA 260855Z AUTO VRB31KT //// // FEW008 SCT021 BKN028 12/10 Q0995 RE//
10:25
L
13 °C 0 m 2.700 ft Var Var 31 kt METAR EHMA 260825Z AUTO VRB31KT //// // FEW013 SCT020 BKN027 13/10 Q0995 RE//
09:55
L
12 °C 0 m 3.200 ft Var Var 30 kt METAR EHMA 260755Z AUTO VRB30KT //// // FEW013 SCT020 BKN032 12/10 Q0996 RE//
09:25
L
13 °C 0 m 3.700 ft 200° 200° 33 kt METAR EHMA 260725Z AUTO 20033KT 170V260 //// // FEW019 SCT032 BKN037 13/10 Q0996 RE//
08:55
L
13 °C 0 m 4.400 ft Var Var 30 kt METAR EHMA 260655Z AUTO VRB30KT //// // FEW026 SCT039 BKN044 13/10 Q0997 RE//
08:25
L
13 °C 0 m 4.500 ft Var Var 31 kt METAR EHMA 260625Z AUTO VRB31KT //// // FEW016 SCT023 BKN045 13/10 Q0997 RE//
07:55
L
12 °C 0 m 2.300 ft 200° 200° 27 kt METAR EHMA 260555Z AUTO 20027KT 170V250 //// // FEW016 SCT019 BKN023 12/11 Q0997 RE//
07:25
L
12 °C 0 m 3.200 ft 200° 200° 28 kt METAR EHMA 260525Z AUTO 20028KT 100V270 //// // FEW015CB SCT022 BKN032 12/11 Q0998 RE//
06:55
L
13 °C 0 m 3.300 ft 200° 200° 28 kt METAR EHMA 260455Z AUTO 20028KT 110V250 //// // FEW015CB SCT029 BKN033 13/10 Q0998 RE//
06:25
L
12 °C 0 m 4.700 ft 200° 200° 26 kt METAR EHMA 260425Z AUTO 20026KT 160V260 //// // FEW015CB SCT037 BKN047 12/10 Q0999 RE//
05:55
L
12 °C 0 m - 200° 200° 27 kt METAR EHMA 260355Z AUTO 20027KT 170V250 //// // FEW015CB SCT041 12/10 Q1000 RE//
05:25
L
12 °C 0 m - 200° 200° 25 kt METAR EHMA 260325Z AUTO 20025KT 150V260 //// // FEW031 SCT043 12/10 Q1000 RE//
04:55
L
12 °C 0 m - 200° 200° 24 kt METAR EHMA 260255Z AUTO 20024KT 170V260 //// // FEW015CB SCT042 12/10 Q1001 RE//
04:25
L
12 °C 0 m - 210° 210° 21 kt METAR EHMA 260225Z AUTO 21021KT 100V270 //// // FEW015CB SCT046 12/10 Q1002 RE//
03:55
L
13 °C 0 m - 180° 180° 19 kt METAR EHMA 260155Z AUTO 18019KT //// // FEW015CB SCT045 13/10 Q1003 RE//
03:25
L
13 °C 0 m 4.900 ft Var Var 20 kt METAR EHMA 260125Z AUTO VRB20KT //// // FEW029 SCT034 BKN049 13/10 Q1003 RE//
02:55
L
13 °C 0 m - Var Var 22 kt METAR EHMA 260055Z AUTO VRB22KT //// // FEW015CB 13/10 Q1004
02:25
V
13 °C 10 km+ - Var Var 21 kt METAR EHMA 260025Z AUTO VRB21KT 9999 NSC 13/10 Q1004
01:55
V
13 °C 10 km+ 4.200 ft Var Var 20 kt METAR EHMA 252355Z AUTO VRB20KT 9999 -DZ FEW025 SCT037 BKN042 13/09 Q1005 REDZ
01:25
V
13 °C 10 km+ - Var Var 14 kt METAR EHMA 252325Z AUTO VRB14KT 9999 -DZ FEW025 SCT037 13/09 Q1006
00:55
V
14 °C 10 km+ - 240° 240° 16 kt METAR EHMA 252255Z AUTO 24016KT 9999 NSC 14/09 Q1007
00:25
V
14 °C 10 km+ - 240° 240° 16 kt METAR EHMA 252225Z AUTO 24016KT 9999 NSC 14/08 Q1007

25. September 2022

Uhrzeit Code Wetter Temp. Sichtweite Wolkendecke Wind METAR/SPECI
23:55
V
14 °C 10 km+ - 250° 250° 17 kt METAR EHMA 252155Z AUTO 25017KT 9999 FEW026 14/09 Q1008
Ältere Daten

Wir und Dritte verfolgen dein Internetverhalten auf unserer Website mit Cookies. Wenn du fortfährst, gehen wir davon aus, dass du mit unserer Cookie-Richtlinie einverstanden bist. Mehr erfahren